Location: ?????oe
(44.4874°N, 135.7046°E)
Time: 03:33:08
(UTC+00:00)

IRS-1C - Visible Passes

Search period start: 17 March 2026 00:00
Search period end: 27 March 2026 00:00
Orbit: 813 x 814 km, 99.0° (Epoch: 16 March)

Date Brightness Start Highest point End Pass type
(mag) Time Alt. Az. Time Alt. Az. Time Alt. Az.
17 Mar 7.3 10:28:17 10° WSW 10:30:45 13° W 10:33:13 10° WNW visible
18 Mar 6.9 10:03:45 10° SW 10:07:44 21° W 10:11:45 10° NW visible
19 Mar 6.1 09:40:02 10° SSW 09:44:49 33° W 09:49:37 10° NNW visible
19 Mar 7.9 20:17:43 10° E 20:18:23 10° E 20:19:03 10° E visible
21 Mar 7.5 10:38:36 10° WSW 10:39:53 11° W 10:41:10 10° WNW visible
22 Mar 7.0 10:13:17 10° SW 10:16:51 18° W 10:20:25 10° NW visible
23 Mar 6.5 09:49:21 10° SSW 09:53:53 28° W 09:58:27 10° NW visible
26 Mar 7.1 10:22:57 10° SW 10:25:57 15° W 10:28:58 10° NW visible
